Regional Weather Roundup
Issued by NWS

Home | Current Version | Previous Version | Text Only | Print | Product List | Glossary Off
Versions: 1 2 3 4 5 6 7 8 9 10 11 12 13 14 15 16 17 18 19 20 21 22 23 24 25 26 27 28 29 30 31 32 33 34 35 36 37 38 39 40 41 42 43 44 45 46 47 48 49 50

491
ASUS43 KLMK 171310
RWRKY
KENTUCKY REGIONAL WEATHER ROUNDUP
NATIONAL WEATHER SERVICE LOUISVILLE KY
900 AM EDT TUE OCT 17 2017

NOTE "FAIR" INDICATES FEW OR NO CLOUDS BELOW 12,000 FEET
WITH NO SIGNIFICANT WEATHER AND/OR OBSTRUCTIONS TO VISIBILITY.

KYZ001>023-026-027-061>063-070>075-171400-
WESTERN AND SOUTH CENTRAL KENTUCKY

CITY           SKY/WX    TMP DP  RH WIND       PRES   REMARKS
PADUCAH        CLOUDY    40  38  93 CALM      30.36R
HENDERSON      SUNNY     41  41 100 CALM      30.38R
OWENSBORO      SUNNY     43  41  93 VRB3      30.39R
HOPKINSVILLE   NOT AVBL
BOWLING GREEN  SUNNY     44  44 100 CALM      30.39R
GLASGOW        SUNNY    N/A N/A N/A CALM      30.38R
$$

KYZ024-025-028>034-038-045-046-053-171400-
NORTH CENTRAL KENTUCKY

CITY           SKY/WX    TMP DP  RH WIND       PRES   REMARKS
LOUISVILLE/SDF MOSUNNY   45  41  86 CALM      30.39R
LOUISVILLE/LOU SUNNY     45  44  97 CALM      30.39R
FORT KNOX      NOT AVBL
$$

KYZ035>037-039>044-047>052-055>060-089>105-171400-
NORTHEAST KENTUCKY

CITY           SKY/WX    TMP DP  RH WIND       PRES   REMARKS
LEXINGTON      SUNNY     43  41  93 CALM      30.39R
COVINGTON      MOSUNNY   46  43  89 CALM      30.37R
FRANKFORT      SUNNY     42  38  85 CALM      30.38R
$$

KYZ054-064>069-076>088-106>120-171400-
SOUTHEAST KENTUCKY

CITY           SKY/WX    TMP DP  RH WIND       PRES   REMARKS
JACKSON        SUNNY     43  40  89 CALM      30.39R
LONDON         SUNNY     41  39  93 CALM      30.39R
SOMERSET       FOG       37  37 100 CALM      30.41R VSB<1/4
MIDDLESBORO    FOG       40  40 100 CALM      30.41R VSB 1/2
MONTICELLO     PTSUNNY   40  40 100 NE8       30.41R FOG     WCI  34
$$





USA.gov is the U.S. government's official web portal to all federal, state and local government web resources and services.